星链-3921 (STARLINK-3921 )

导读 | 豆包AI

STARLINK-3921是美国SpaceX公司星链(Starlink)项目的卫星,于2022年5月14日发射入轨,属于星链低轨互联网星座的组成部分。星链项目计划在近地轨道部署数万颗卫星,为全球提供高速低延迟宽带互联网服务,STARLINK-3921的入轨进一步扩充了星链星座的覆盖能力与网络容量,助力实现全球偏远地区的网络接入,截至2026年仍在轨道服役支撑星链全球通信服务。

Basic Information
目录编号:
52613
目录名称:
STARLINK-3921
国际标识:
2022-052R
轨道中心:
EARTH
卫星名称:
星链-3921
卫星全名:
星链-3921 (STARLINK-3921 )
卫星状态:
已陨落 最后检测时间 2024-09-18
发射日期:
2022-05-14 UTC
国别 :
美国 (US)
星等 :
--
Orbit Information
数据来源 国际轨道数据
星历时间: 2024-09-19T07:30:24+0800
轨道信息已过期587天
半长轴: 6527.75km
偏心率: 0.0004323
轨道倾角: 53.189°
近地点辐角 256.767°
升交点赤经 142.224°
平近点角 202.206°
近地点: 146.793km
远地点: 152.437km
周期: 87.479分钟
每日圈数: 16.46105
Detailed Information
固有亮度:
5
最大亮度:
2.5
卫星平台:
Starlink v1.5
覆盖范围:
全球
运营商:
太空探索技术公司
运营商所在国:
美国
制造商(研发单位):
太空探索技术公司
制造商所在国:
美国
使用方式:
暂无
Satellite Introduction
星链(Starlink)计划是由太空探索技术公司(SpaceX)提出的一个巨型低轨卫星互联网星座项目,计划在2019年至2024年间在太空搭建由约1.2万颗卫星组成的“星链”网络,其中1584颗将部署在地球上空550千米处的近地轨道,并从2020年开始工作。该卫星仍在工作。